When you browse on this site, cookies collect data to enhance your experience and personalize the content and advertising you see.
Visit our Privacy Policy to learn more. By continuing to use the site, you agree to this use of cookies and data.
  • In Germany
  • List of Countries
  • For 7 days
  • Water Temperature
  • Satellite Maps
  • Weather Map
  • Weather Widgets
  • user-avatar
    Login

    Hourly Weather Maceio

    Today, 14 December, Friday

    Time Temperature Precipitation Wind Pressure Humidity
    00:00 +25°C° 0 mm 4 mps 760 mmHg 86%
    01:00 +25°C° 0 mm 4 mps 760 mmHg 87%
    02:00 +25°C° 0 mm 4 mps 760 mmHg 88%
    03:00 +25°C° 0 mm 4 mps 760 mmHg 89%
    04:00 +25°C° 0 mm 3 mps 759 mmHg 91%
    05:00 +25°C° 0 mm 3 mps 760 mmHg 89%
    06:00 +26°C° 0 mm 3 mps 760 mmHg 87%
    07:00 +26°C° 0 mm 3 mps 760 mmHg 85%
    08:00 +28°C° 0 mm 4 mps 760 mmHg 76%
    09:00 +29°C° 0 mm 4 mps 761 mmHg 67%
    10:00 +32°C° 0 mm 4 mps 761 mmHg 58%
    11:00 +32°C° 0 mm 4 mps 761 mmHg 56%
    12:00 +33°C° 0 mm 4 mps 761 mmHg 54%
    13:00 +33°C° 0 mm 4 mps 761 mmHg 52%
    14:00 +33°C° 0 mm 5 mps 761 mmHg 51%
    15:00 +33°C° 0 mm 5 mps 760 mmHg 50%
    16:00 +33°C° 0 mm 5 mps 760 mmHg 49%
    17:00 +32°C° 0 mm 4 mps 760 mmHg 57%
    18:00 +29°C° 0 mm 4 mps 761 mmHg 64%
    19:00 +27°C° 0 mm 3 mps 761 mmHg 71%
    20:00 +27°C° 0 mm 3 mps 761 mmHg 75%
    21:00 +26°C° 0 mm 3 mps 761 mmHg 79%
    22:00 +25°C° 0 mm 3 mps 762 mmHg 83%
    23:00 +25°C° 0 mm 3 mps 762 mmHg 85%

    Tomorrow, 15 December, Saturday

    Time Temperature Precipitation Wind Pressure Humidity
    00:00 +25°C° 0 mm 3 mps 762 mmHg 86%
    01:00 +25°C° 0 mm 3 mps 762 mmHg 88%
    02:00 +25°C° 0.1 mm 3 mps 761 mmHg 88%
    03:00 +25°C° 0.1 mm 3 mps 761 mmHg 89%
    04:00 +24°C° 0.1 mm 3 mps 761 mmHg 90%
    05:00 +25°C° 0.1 mm 3 mps 761 mmHg 87%
    06:00 +25°C° 0.1 mm 3 mps 761 mmHg 85%
    07:00 +26°C° 0.1 mm 3 mps 761 mmHg 83%
    08:00 +28°C° 0.1 mm 4 mps 762 mmHg 72%
    09:00 +30°C° 0.1 mm 4 mps 762 mmHg 62%
    10:00 +33°C° 0.1 mm 4 mps 762 mmHg 51%
    11:00 +34°C° 0.1 mm 5 mps 762 mmHg 49%
    12:00 +34°C° 0.1 mm 5 mps 762 mmHg 47%
    13:00 +35°C° 0.1 mm 5 mps 761 mmHg 45%
    14:00 +35°C° 0 mm 5 mps 761 mmHg 47%
    15:00 +34°C° 0 mm 5 mps 760 mmHg 49%
    16:00 +33°C° 0 mm 5 mps 760 mmHg 52%
    17:00 +32°C° 0 mm 5 mps 760 mmHg 59%
    18:00 +29°C° 0 mm 4 mps 760 mmHg 66%
    19:00 +27°C° 0 mm 4 mps 760 mmHg 73%
    20:00 +27°C° 0.1 mm 4 mps 761 mmHg 77%
    21:00 +26°C° 0.1 mm 4 mps 762 mmHg 80%
    22:00 +26°C° 0.1 mm 3 mps 762 mmHg 84%
    23:00 +25°C° 0.1 mm 3 mps 762 mmHg 85%

    Day after tomorrow, 16 December, Sunday

    Time Temperature Precipitation Wind Pressure Humidity
    00:00 +25°C° 0.1 mm 3 mps 762 mmHg 86%
    01:00 +25°C° 0.1 mm 3 mps 762 mmHg 87%
    02:00 +25°C° 0.1 mm 3 mps 761 mmHg 88%
    03:00 +25°C° 0.1 mm 3 mps 761 mmHg 89%
    04:00 +24°C° 0.1 mm 3 mps 761 mmHg 89%
    05:00 +25°C° 0.1 mm 3 mps 761 mmHg 87%
    06:00 +25°C° 0.1 mm 3 mps 761 mmHg 85%
    07:00 +26°C° 0.1 mm 3 mps 761 mmHg 83%
    08:00 +28°C° 0.1 mm 4 mps 762 mmHg 74%
    09:00 +30°C° 0.1 mm 4 mps 762 mmHg 64%
    10:00 +33°C° 0.1 mm 5 mps 762 mmHg 55%
    11:00 +33°C° 0 mm 5 mps 762 mmHg 54%
    12:00 +33°C° 0 mm 5 mps 762 mmHg 53%
    13:00 +33°C° 0 mm 5 mps 762 mmHg 52%
    14:00 +33°C° 0 mm 5 mps 761 mmHg 51%
    15:00 +33°C° 0 mm 5 mps 761 mmHg 51%
    16:00 +33°C° 0 mm 6 mps 760 mmHg 51%
    17:00 +32°C° 0 mm 5 mps 760 mmHg 58%
    18:00 +29°C° 0 mm 4 mps 761 mmHg 65%
    19:00 +27°C° 0 mm 4 mps 761 mmHg 73%
    20:00 +27°C° 0 mm 4 mps 761 mmHg 77%
    21:00 +26°C° 0 mm 4 mps 762 mmHg 81%
    22:00 +26°C° 0 mm 4 mps 762 mmHg 85%
    23:00 +25°C° 0 mm 3 mps 762 mmHg 87%

    17 December, Monday

    Time Temperature Precipitation Wind Pressure Humidity
    00:00 +25°C° 0 mm 3 mps 761 mmHg 89%
    01:00 +25°C° 0 mm 3 mps 761 mmHg 90%
    02:00 +25°C° 0 mm 3 mps 760 mmHg 91%
    03:00 +25°C° 0 mm 3 mps 760 mmHg 91%
    04:00 +25°C° 0 mm 3 mps 760 mmHg 92%
    05:00 +25°C° 0 mm 3 mps 760 mmHg 90%
    06:00 +26°C° 0 mm 3 mps 760 mmHg 87%
    07:00 +26°C° 0 mm 3 mps 761 mmHg 85%
    08:00 +28°C° 0.1 mm 4 mps 761 mmHg 79%
    09:00 +29°C° 0.1 mm 4 mps 761 mmHg 72%
    10:00 +32°C° 0.1 mm 5 mps 762 mmHg 66%
    11:00 +32°C° 0.3 mm 5 mps 761 mmHg 67%
    12:00 +32°C° 0.3 mm 5 mps 761 mmHg 67%
    13:00 +32°C° 0.3 mm 5 mps 761 mmHg 68%
    14:00 +32°C° 0.3 mm 5 mps 760 mmHg 68%
    15:00 +32°C° 0.3 mm 6 mps 760 mmHg 68%
    16:00 +30°C° 0.3 mm 6 mps 759 mmHg 69%
    17:00 +29°C° 0.2 mm 5 mps 760 mmHg 74%
    18:00 +28°C° 0.2 mm 5 mps 760 mmHg 79%
    19:00 +27°C° 0.2 mm 5 mps 761 mmHg 85%
    20:00 +27°C° 0.2 mm 5 mps 761 mmHg 87%
    21:00 +26°C° 0.2 mm 5 mps 761 mmHg 89%
    22:00 +26°C° 0.2 mm 5 mps 762 mmHg 91%
    23:00 +26°C° 0.2 mm 4 mps 761 mmHg 91%

    18 December, Tuesday

    Time Temperature Precipitation Wind Pressure Humidity
    00:00 +26°C° 0.2 mm 4 mps 761 mmHg 92%
    01:00 +26°C° 0.2 mm 4 mps 761 mmHg 92%
    02:00 +26°C° 0.3 mm 4 mps 760 mmHg 93%
    03:00 +26°C° 0.3 mm 4 mps 760 mmHg 93%
    04:00 +25°C° 0.3 mm 4 mps 760 mmHg 93%
    05:00 +26°C° 0.2 mm 4 mps 760 mmHg 92%
    06:00 +26°C° 0.2 mm 4 mps 760 mmHg 90%
    07:00 +27°C° 0.2 mm 4 mps 761 mmHg 89%
    08:00 +28°C° 0.2 mm 5 mps 761 mmHg 82%
    09:00 +29°C° 0.2 mm 5 mps 761 mmHg 76%
    10:00 +32°C° 0.2 mm 5 mps 761 mmHg 70%
    11:00 +32°C° 0.1 mm 5 mps 761 mmHg 66%
    12:00 +33°C° 0.1 mm 5 mps 761 mmHg 63%
    13:00 +34°C° 0.1 mm 5 mps 760 mmHg 59%
    14:00 +34°C° 0.1 mm 6 mps 760 mmHg 60%
    15:00 +34°C° 0.1 mm 6 mps 759 mmHg 60%
    16:00 +33°C° 0.1 mm 6 mps 759 mmHg 60%
    17:00 +32°C° 0 mm 5 mps 759 mmHg 67%
    18:00 +29°C° 0 mm 5 mps 760 mmHg 74%
    19:00 +28°C° 0 mm 5 mps 760 mmHg 80%
    20:00 +27°C° 0 mm 4 mps 761 mmHg 83%
    21:00 +27°C° 0 mm 4 mps 761 mmHg 86%
    22:00 +26°C° 0 mm 4 mps 761 mmHg 89%
    23:00 +26°C° 0 mm 4 mps 761 mmHg 90%

    19 December, Wednesday

    Time Temperature Precipitation Wind Pressure Humidity
    00:00 +26°C° 0 mm 4 mps 760 mmHg 90%
    01:00 +26°C° 0 mm 4 mps 760 mmHg 91%
    02:00 +25°C° 0 mm 3 mps 760 mmHg 92%
    03:00 +25°C° 0 mm 3 mps 759 mmHg 92%
    04:00 +25°C° 0 mm 3 mps 759 mmHg 93%
    05:00 +25°C° 0 mm 3 mps 759 mmHg 91%
    06:00 +26°C° 0 mm 3 mps 760 mmHg 90%
    07:00 +26°C° 0 mm 4 mps 760 mmHg 88%
    08:00 +28°C° 0 mm 4 mps 760 mmHg 78%
    09:00 +30°C° 0 mm 4 mps 761 mmHg 68%
    10:00 +33°C° 0 mm 4 mps 761 mmHg 58%
    11:00 +33°C° 0 mm 4 mps 760 mmHg 56%
    12:00 +33°C° 0 mm 4 mps 760 mmHg 55%
    13:00 +33°C° 0 mm 4 mps 760 mmHg 54%
    14:00 +34°C° 0 mm 4 mps 759 mmHg 53%
    15:00 +34°C° 0 mm 5 mps 759 mmHg 53%
    16:00 +34°C° 0 mm 5 mps 758 mmHg 53%
    17:00 +32°C° 0 mm 4 mps 758 mmHg 61%
    18:00 +30°C° 0 mm 4 mps 759 mmHg 69%
    19:00 +28°C° 0 mm 4 mps 759 mmHg 76%
    20:00 +27°C° 0 mm 4 mps 759 mmHg 81%
    21:00 +26°C° 0 mm 3 mps 760 mmHg 85%
    22:00 +26°C° 0 mm 3 mps 760 mmHg 89%
    23:00 +25°C° 0.1 mm 3 mps 760 mmHg 90%
    Show more